Rifle, CO

1:33 PM MST on February 25, 2018 (GMT -0700)
Garfield County Regional

Weather History for KRIL - October, 2012

Change the Weather History Date:

Thursday, October 4, 2012

  Actual Average Record
Temperature  
Mean Temperature 57 °F 54 °F  
Max Temperature 78 °F 70 °F 84 °F (1975)
Min Temperature 36 °F 38 °F 24 °F (1959)
Degree Days  
Heating Degree Days 8 11  
Month to date heating degree days 23 42  
Since 1 July heating degree days 108 188  
Cooling Degree Days 0 0  
Month to date cooling degree days 0 0  
Year to date cooling degree days 809 541  
Growing Degree Days 7 (Base 50)    
Moisture  
Dew Point 20 °F    
Average Humidity 30    
Maximum Humidity 48    
Minimum Humidity 11    
Precipitation  
Precipitation 0.00 in 0.05 in 1.36 in (1914)
Month to date precipitation 0.00 0.23  
Year to date precipitation 6.15 10.70  
Sea Level Pressure  
Sea Level Pressure 29.96 in    
Wind  
Wind Speed 8 mph (West)    
Max Wind Speed 31 mph    
Max Gust Speed 41 mph    
Visibility 9 miles    
Events      
T = Trace of Precipitation, MM = Missing Value Source: NWS Daily Summary

Daily Weather History Graph

Daily Weather History Graph

Search for Another Location

Airport or City:

Trip Planner

Search our weather history database for the weather conditions in past years. The results will help you decide how hot, cold, wet, or windy it might be!

Date:

Astronomy

Oct. 04, 2012 Rise Set
Actual Time 7:10 AM MDT 6:47 PM MDT
Civil Twilight 6:43 AM MDT 7:14 PM MDT
Nautical Twilight 6:12 AM MDT 7:45 PM MDT
Astronomical Twilight 5:41 AM MDT 8:16 PM MDT
Moon 9:26 PM MDT (10/4) 11:29 AM MDT (10/4)
Length of Visible Light 12h 30m
Length of Day
11h 37m
Waning Gibbous, 81% of the Moon is Illuminated
Oct 4
Waning Gibbous
Oct 8
Last Quarter
Oct 15
New
Oct 21
First Quarter
Oct 29
Full

Hourly Weather History & Observations

Time (MDT) Temp. Windchill Dew Point Humidity Pressure Visibility Wind Dir Wind Speed Gust Speed Precip Events Conditions
12:53 AM 54.0 °F - 21.9 °F 29% 30.00 in 10.0 mi NW 12.7 mph - N/A   Clear
1:53 AM 51.1 °F - 23.0 °F 33% 30.00 in 10.0 mi West 6.9 mph - N/A   Clear
2:53 AM 48.9 °F - 23.0 °F 36% 30.01 in 10.0 mi WSW 5.8 mph - N/A   Clear
3:53 AM 46.0 °F 44.8 °F 21.9 °F 39% 30.02 in 10.0 mi WSW 3.5 mph - N/A   Clear
4:53 AM 43.0 °F - 21.0 °F 42% 30.02 in 10.0 mi Calm Calm - N/A   Clear
5:53 AM 39.9 °F - 19.9 °F 45% 30.05 in 10.0 mi Calm Calm - N/A   Clear
6:53 AM 37.9 °F - 19.0 °F 47% 30.06 in 10.0 mi Calm Calm - N/A   Clear
7:53 AM 37.0 °F - 19.0 °F 48% 30.07 in 10.0 mi Calm Calm - N/A   Clear
8:53 AM 43.0 °F 41.3 °F 21.9 °F 43% 30.05 in 10.0 mi NE 3.5 mph - N/A   Clear
9:53 AM 48.0 °F - 24.1 °F 39% 30.02 in 10.0 mi Calm Calm - N/A   Clear
10:53 AM 55.9 °F - 21.9 °F 27% 30.00 in 10.0 mi Calm Calm - N/A   Clear
11:53 AM 63.0 °F - 21.0 °F 20% 29.97 in 10.0 mi Variable 3.5 mph - N/A   Clear
12:53 PM 69.1 °F - 21.0 °F 16% 29.92 in 10.0 mi West 8.1 mph 16.1 mph N/A   Clear
1:53 PM 77.0 °F - 21.9 °F 13% 29.87 in 10.0 mi West 23.0 mph 33.4 mph N/A   Clear
2:53 PM 77.0 °F - 21.0 °F 12% 29.86 in 10.0 mi WSW 27.6 mph 41.4 mph N/A   Clear
3:06 PM 77.0 °F - 21.2 °F 12% 30.02 in 1.8 mi WSW 27.6 mph 38.0 mph N/A   Haze
3:21 PM 77.0 °F - 19.4 °F 12% 30.02 in 10.0 mi WSW 27.6 mph 35.7 mph N/A   Clear
3:51 PM 75.2 °F - 17.6 °F 11% 30.01 in 2.5 mi SW 27.6 mph 38.0 mph N/A   Haze
3:53 PM 75.9 °F - 18.0 °F 11% 29.86 in 2.5 mi WSW 25.3 mph 38.0 mph N/A   Haze
4:00 PM 75.2 °F - 17.6 °F 11% 30.01 in 10.0 mi WSW 27.6 mph 33.4 mph N/A   Clear
4:53 PM 75.0 °F - 18.0 °F 12% 29.86 in 10.0 mi WSW 27.6 mph 35.7 mph N/A   Clear
5:53 PM 73.0 °F - 19.0 °F 13% 29.87 in 10.0 mi West 13.8 mph - N/A   Clear
6:53 PM 68.0 °F - 19.9 °F 16% 29.89 in 10.0 mi WNW 8.1 mph - N/A   Clear
7:53 PM 66.0 °F - 19.9 °F 17% 29.90 in 10.0 mi West 4.6 mph - N/A   Clear
8:53 PM 64.9 °F - 18.0 °F 16% 29.90 in 10.0 mi West 6.9 mph - N/A   Partly Cloudy
9:53 PM 64.9 °F - 17.1 °F 16% 29.89 in 10.0 mi NW 6.9 mph - N/A   Clear
10:53 PM 63.0 °F - 18.0 °F 18% 29.87 in 10.0 mi Variable 3.5 mph - N/A   Scattered Clouds
11:53 PM 57.9 °F - 18.0 °F 21% 29.84 in 10.0 mi South 3.5 mph - N/A   Partly Cloudy